Total_Precipitation_Accumulation
1.18 1.06 0.94 0.84 0.76 0.69 0.67 0.70 0.73 0.72 0.71 0.74 0.75 0.67 0.66 0.59 0.51 0.49 0.44 0.41 0.43 0.56 0.83 1.13 1.39 1.67 1.89 1.96 1.96 1.83 1.74 1.61 1.46 1.34 1.29 1.32 1.44 1.54 1.59 1.54 1.57 1.60 1.58
1.29 1.19 1.08 1.02 0.95 0.84 0.76 0.78 0.82 0.83 0.78 0.75 0.71 0.67 0.65 0.59 0.51 0.50 0.50 0.49 0.45 0.49 0.71 0.98 1.21 1.47 1.79 2.07 2.19 2.12 1.95 1.86 1.80 1.69 1.53 1.45 1.48 1.57 1.68 1.73 1.56 1.49 1.46
1.33 1.18 1.10 1.06 1.03 1.01 0.95 0.89 0.86 0.93 0.88 0.80 0.75 0.72 0.69 0.63 0.57 0.57 0.58 0.56 0.54 0.52 0.60 0.82 1.04 1.26 1.51 1.90 2.28 2.44 2.22 2.09 2.09 2.05 1.84 1.69 1.58 1.63 1.66 1.79 1.83 1.73 1.59
1.40 1.34 1.21 1.11 1.08 1.10 1.10 1.07 0.95 0.91 0.91 0.90 0.85 0.81 0.78 0.75 0.65 0.62 0.66 0.63 0.62 0.58 0.55 0.66 0.82 1.02 1.31 1.62 1.95 2.35 2.45 2.36 2.32 2.30 2.17 2.00 1.79 1.73 1.75 1.80 1.91 1.96 1.88
1.36 1.35 1.27 1.22 1.24 1.22 1.16 1.14 1.06 1.03 0.98 0.94 0.94 0.92 0.90 0.88 0.83 0.76 0.76 0.74 0.70 0.65 0.62 0.62 0.70 0.77 0.98 1.31 1.66 2.06 2.40 2.51 2.46 2.42 2.33 2.24 2.07 1.89 1.87 1.91 1.95 2.07 2.14
1.40 1.43 1.35 1.30 1.30 1.29 1.27 1.29 1.26 1.15 1.10 1.10 1.13 1.07 1.05 1.01 0.92 0.82 0.80 0.80 0.76 0.70 0.72 0.72 0.71 0.68 0.77 1.00 1.34 1.71 2.15 2.45 2.58 2.59 2.56 2.50 2.40 2.26 2.09 2.07 2.06 2.16 2.36
1.53 1.54 1.44 1.36 1.34 1.27 1.17 1.13 1.24 1.28 1.21 1.18 1.21 1.13 1.03 0.99 0.91 0.79 0.82 0.90 0.95 0.94 0.92 0.93 0.92 0.82 0.75 0.86 1.00 1.27 1.68 2.16 2.56 2.73 2.72 2.69 2.68 2.63 2.50 2.35 2.30 2.36 2.50
1.61 1.68 1.67 1.53 1.39 1.32 1.22 1.09 1.07 1.16 1.18 1.17 1.23 1.25 1.12 1.02 0.88 0.74 0.75 0.83 0.91 1.02 1.07 1.06 1.06 1.05 0.94 0.86 0.78 0.87 1.10 1.56 2.17 2.71 2.90 2.92 3.05 3.11 3.00 2.78 2.64 2.68 2.77
1.52 1.49 1.58 1.69 1.63 1.46 1.31 1.18 1.12 1.07 1.11 1.09 1.09 1.34 1.34 1.06 0.82 0.66 0.62 0.68 0.72 0.78 0.85 0.92 0.99 1.06 1.10 1.05 0.91 0.79 0.82 1.12 1.64 2.32 2.98 3.29 3.50 3.74 3.73 3.42 3.16 3.04 3.00
1.55 1.50 1.53 1.61 1.65 1.54 1.40 1.32 1.24 1.16 1.12 1.13 1.07 1.04 1.07 1.03 1.08 0.88 0.62 0.59 0.59 0.60 0.65 0.73 0.80 0.88 0.98 1.04 1.04 1.02 0.97 0.99 1.37 1.88 2.59 3.26 3.77 4.23 4.51 4.23 3.79 3.44 3.28
1.58 1.53 1.55 1.60 1.60 1.52 1.41 1.34 1.26 1.22 1.16 1.12 1.09 1.04 0.96 0.86 0.87 0.99 0.77 0.57 0.59 0.57 0.58 0.67 0.73 0.78 0.82 0.90 0.95 1.00 1.07 1.07 1.28 1.60 2.02 2.65 3.36 4.13 4.71 4.76 4.42 4.03 3.73
1.70 1.60 1.56 1.57 1.53 1.46 1.39 1.34 1.30 1.25 1.19 1.13 1.08 1.04 1.03 1.03 0.90 0.93 0.87 0.61 0.57 0.56 0.58 0.65 0.73 0.79 0.85 0.94 1.02 1.19 1.19 1.20 1.31 1.52 1.66 2.04 2.61 3.39 4.30 4.83 4.78 4.54 4.28
1.70 1.60 1.52 1.51 1.52 1.47 1.39 1.35 1.34 1.32 1.29 1.28 1.21 1.12 1.02 0.94 0.91 1.00 1.08 0.85 0.66 0.55 0.56 0.62 0.66 0.76 0.89 0.99 1.06 1.21 1.19 1.20 1.26 1.39 1.46 1.55 1.83 2.45 3.35 4.30 4.85 4.85 4.68
1.71 1.65 1.63 1.60 1.55 1.52 1.53 1.47 1.37 1.33 1.35 1.33 1.27 1.22 1.19 1.04 0.98 1.03 1.17 1.28 1.17 0.80 0.62 0.56 0.54 0.65 0.82 0.95 1.09 1.25 1.15 1.19 1.18 1.28 1.39 1.42 1.48 1.73 2.29 3.18 4.13 4.82 4.91
1.71 1.68 1.64 1.65 1.64 1.65 1.71 1.73 1.61 1.45 1.40 1.33 1.26 1.24 1.26 1.16 1.07 1.02 1.05 1.26 1.60 1.42 0.85 0.55 0.52 0.58 0.74 0.92 1.12 1.15 1.12 1.26 1.29 1.28 1.35 1.42 1.48 1.58 1.83 2.22 2.96 3.89 4.67
1.72 1.70 1.67 1.60 1.57 1.60 1.70 1.82 1.77 1.60 1.52 1.42 1.33 1.28 1.26 1.19 1.14 1.10 1.10 1.13 1.33 1.57 1.23 0.60 0.52 0.57 0.72 0.89 1.10 1.11 1.10 1.26 1.28 1.31 1.31 1.37 1.48 1.57 1.73 1.94 2.29 3.00 3.83
1.70 1.70 1.65 1.61 1.56 1.56 1.61 1.72 1.75 1.74 1.68 1.55 1.49 1.44 1.32 1.24 1.28 1.22 1.19 1.20 1.22 1.40 1.43 0.76 0.56 0.61 0.77 0.91 1.00 1.04 1.06 1.11 1.12 1.24 1.30 1.36 1.38 1.46 1.61 1.80 2.00 2.39 3.07
1.43 1.58 1.66 1.68 1.63 1.54 1.57 1.69 1.71 1.74 1.76 1.69 1.61 1.55 1.45 1.40 1.38 1.32 1.36 1.32 1.24 1.24 1.41 1.14 0.75 0.69 0.76 0.86 0.94 1.02 1.07 1.10 1.09 1.20 1.26 1.33 1.41 1.49 1.58 1.72 1.89 2.06 2.44
1.49 1.50 1.60 1.64 1.65 1.65 1.64 1.63 1.67 1.71 1.74 1.72 1.71 1.73 1.65 1.61 1.57 1.50 1.50 1.49 1.41 1.32 1.37 1.40 1.04 0.83 0.84 0.93 1.06 1.12 1.15 1.22 1.23 1.33 1.36 1.35 1.46 1.56 1.59 1.69 1.85 1.99 2.08
1.68 1.71 1.66 1.65 1.68 1.75 1.94 1.97 1.86 1.81 1.78 1.74 1.73 1.78 1.81 1.82 1.79 1.78 1.84 1.80 1.78 1.78 1.70 1.65 1.37 1.10 1.04 1.04 1.19 1.28 1.28 1.26 1.33 1.36 1.46 1.41 1.48 1.56 1.58 1.60 1.65 1.71 1.89
1.83 1.83 1.84 1.78 1.77 1.91 2.21 2.37 2.20 2.06 1.96 1.87 1.79 1.77 1.79 1.95 2.11 2.28 2.40 2.30 2.21 2.28 2.20 2.10 1.84 1.54 1.36 1.34 1.40 1.35 1.41 1.36 1.40 1.40 1.40 1.34 1.31 1.31 1.38 1.52 1.66 1.73 1.82
1.94 1.93 1.86 1.81 1.75 1.87 2.36 2.51 2.24 2.00 1.86 1.87 1.85 1.76 1.77 1.89 1.99 2.16 2.35 2.33 2.33 2.52 2.61 2.47 2.20 1.90 1.52 1.38 1.47 1.63 1.75 1.83 1.76 1.48 1.46 1.50 1.40 1.43 1.43 1.45 1.68 1.77 1.85
1.83 1.84 1.81 1.76 1.70 1.74 2.24 2.41 2.21 1.82 1.64 1.64 1.64 1.65 1.67 1.71 1.87 1.74 1.90 1.98 1.99 2.12 2.32 2.43 2.45 2.03 1.73 1.59 1.86 2.08 2.09 2.10 1.83 1.60 1.75 1.93 1.75 1.67 1.58 1.65 1.84 1.75 1.82
1.69 1.68 1.62 1.57 1.53 1.63 2.11 2.38 2.22 1.68 1.50 1.48 1.47 1.47 1.49 1.51 1.63 1.84 1.91 1.83 1.66 1.64 1.82 1.98 2.15 2.02 1.92 1.98 2.32 2.66 2.74 2.75 2.40 2.03 1.95 2.25 2.03 1.94 1.85 1.80 1.89 1.80 1.81
1.45 1.49 1.47 1.42 1.40 1.43 1.81 2.19 2.12 1.64 1.58 1.50 1.45 1.47 1.50 1.41 1.67 2.00 2.04 1.93 1.67 1.52 1.60 1.87 2.09 2.21 2.33 2.52 2.80 3.21 3.37 3.45 3.22 2.64 2.28 2.35 2.22 2.11 2.10 2.06 2.01 1.95 1.86
1.28 1.30 1.36 1.38 1.36 1.38 1.62 1.98 2.10 1.70 1.63 1.53 1.46 1.49 1.71 1.70 1.82 1.95 1.92 1.99 1.97 1.62 1.44 1.52 1.65 1.79 1.89 2.10 2.53 2.78 3.04 3.35 3.27 3.02 2.45 2.38 2.41 2.42 2.65 2.28 1.98 1.85 1.82